カタログに戻る

NOAA 16 DEB

運用中PO
NORAD 42337·DEBRIS·🇺🇸 United States

打ち上げ Sep 21, 2000 から Vandenberg Space Force Base

Loading…

次のパス (今後24時間)

TLE

最新Source: Space-Track

元期: Sep 11, 2026, 08:19 UTC

1 42337U 00055QD  26254.34712834  .00010501  00000-0  14536-2 0  9998
2 42337  98.8079  82.4879 0031564  54.2803 306.1334 14.77895270554892

AllMySatでNOAA 16 DEBをリアルタイム追跡

Download on the App Store